Current Weather Conditions: station 63101

sailwx.info

Last reported at 2019-Oct-27 08:22 UTC.
Time now 2020-Feb-28 15:05 UTC

Location: N 61°12' E 000°54'.
View on Google Maps.

See reports from other nearby stations

  
Tides and Currents Weather Stations Pressure Air Temp Water Temp Dewpoint Dewpoint Depression Visibility Wind Speed Wind Dir Waves Ship Positions
date/time (UTC)wind fromknots sea level pressurealtimeterstation pressurevisibilityair tempwater tempwave heightnotes
2020-Feb-28 14:00 050 7 4.7 3.2
2020-Feb-28 13:00 020 5 5.2 3.1
2020-Feb-28 12:00 340 5 6.3 3.5
2020-Feb-28 11:00 330 8 6.3 3.7
2020-Feb-28 10:00 330 9 5.3 3.8
2020-Feb-28 09:00 310 12 4.9 3.6
2020-Feb-28 08:00 340 12 3.8 3.7
2020-Feb-28 07:00 340 15 4.3 3.3
2020-Feb-28 06:00 340 19 3.6 2.9
2020-Feb-28 05:00 330 20 4.5 3.1
2020-Feb-28 04:00 310 21 5.0 2.9
2020-Feb-28 03:00 270 14 4.5 2.9
2020-Feb-28 02:00 290 14 4.9 2.7
2020-Feb-28 01:00 310 12 4.6 2.8
2020-Feb-28 00:00 320 13 5.0 3.0
2020-Feb-27 23:00 320 13 5.2 3.0
2020-Feb-27 22:00 300 13 5.0 2.8
2020-Feb-27 21:00 320 14 4.6 2.9
2020-Feb-27 20:00 280 11 4.3 3.0
2020-Feb-27 19:00 280 8 3.8 3.1
2020-Feb-27 18:00 290 13 3.8 2.9
2020-Feb-27 17:00 280 8 3.8 3.0
2020-Feb-27 16:00 260 11 4.4 3.3
2020-Feb-27 15:00 220 7 3.5 2.9
2020-Feb-27 14:00 240 12 4.8 3.0
2020-Feb-27 13:00 190 9 4.0 3.0
2020-Feb-27 12:00 150 8 3.6 3.3
2020-Feb-27 11:00 190 9 4.8 3.0
2020-Feb-27 10:00 200 11 4.1 3.3
2020-Feb-27 09:00 210 7 4.1 3.6
2020-Feb-27 08:00 180 8 3.6 3.3
2020-Feb-27 07:00 210 9 4.3 3.4
2020-Feb-27 06:00 210 9 4.2 3.4
2020-Feb-27 05:00 230 6 3.8 3.3
2020-Feb-27 04:00 230 8 4.1 3.1
2020-Feb-27 03:00 230 11 4.4 3.1
2020-Feb-27 02:00 250 11 5.2 2.7
2020-Feb-27 01:00 240 11 4.6 2.7
2020-Feb-27 00:00 240 13 4.2 2.5
2020-Feb-26 23:00 200 6 4.2 2.6
2020-Feb-26 22:00 200 6 4.1 2.4
2020-Feb-26 21:00 240 7 4.8 2.6
2020-Feb-26 20:00 270 4 4.6 2.2
2020-Feb-26 19:00 250 6 5.1 2.3
2020-Feb-26 18:00 270 8 5.3 2.0
2020-Feb-26 17:00 260 9 5.3 1.8
2020-Feb-26 16:00 260 11 5.4 1.7
2020-Feb-26 15:00 170 13 4.0 1.8